Hourly Data Report for June 06, 2020

OTTAWA INTL A
ONTARIO
Current Station Operator: NAVCAN

45°19'00.000" N
75°40'00.000" W
114.90 m
6106001
71628
YOW

Download Data

Hourly Data (June 2020)
Hourly Data Report for June 6, 2020
TIME Temp Definition
°C
Dew Point Definition
°C
Rel Hum Definition
%
Wind Dir Definition
10's deg

Wind Spd Definition
km/h
Visibility Definition
km
Stn Press Definition
kPa
Hmdx Definition


Wind Chill Definition


Weather Definition


00:00 17.1 16.5 96 4 7 24.1 99.30     LegendNANA
01:00 16.3 15.9 98 34 10 24.1 99.27     Mainly Clear
02:00 17.4 16.0 91 32 15 24.1 99.30     LegendNANA
03:00 17.2 13.4 78 35 19 24.1 99.30     LegendNANA
04:00 16.6 12.6 77 35 7 24.1 99.36     Mostly Cloudy
05:00 14.9 12.5 86 36 4 24.1 99.35     LegendNANA
06:00 16.3 14.0 86 25 8 24.1 99.40     LegendNANA
07:00 18.3 14.3 78 26 13 24.1 99.46     Mainly Clear
08:00 19.5 13.6 69 29 17 24.1 99.49     LegendNANA
09:00 21.5 13.4 60 27 19 24.1 99.50 25   LegendNANA
10:00 22.7 10.9 47 28 26 24.1 99.49     Mainly Clear
11:00 23.2 10.8 45 28 28 24.1 99.50 25   LegendNANA
12:00 24.1 11.3 44 26 14 24.1 99.46 26   LegendNANA
13:00 23.7 9.7 41 29 26 24.1 99.41 25   Mostly Cloudy
14:00 19.8 12.3 62 34 46 24.1 99.52     Rain Showers
15:00 18.2 11.6 65 33 22 24.1 99.56     LegendNANA
16:00 20.9 10.8 52 32 27 24.1 99.57     Mostly Cloudy
17:00 18.4 11.0 61 33 27 24.1 99.67     LegendNANA
18:00 18.3 11.7 65 32 27 24.1 99.72     LegendNANA
19:00 17.3 11.5 68 34 22 24.1 99.79     Mostly Cloudy
20:00 16.9 10.7 67 34 16 24.1 99.85     LegendNANA
21:00 16.6 9.6 63 33 18 24.1 99.93     LegendNANA
22:00 15.4 9.4 67 33 18 24.1 100.00     Mainly Clear
23:00 15.0 8.4 65 34 20 24.1 100.01     LegendNANA

Notes on Data Quality.

Legend

  • E = Estimated
  • M = Missing
  • NA = Not Available*
  • [empty] = Indicates an unobserved value
Date modified: